AEOLUS

Last updated on Fri Jul 28 2023 01:02:11 GMT+0100 (British Summer Time)

1 43600U 18066A 23208.76383922 .01564025 20676-5 57193-3 0 9996 2 43600 96.7142 213.8646 0053899 268.1324 170.7253 16.20755997285421

Satellite not in orbit